Location: Copenhagen (historical)
(34.9842°N, 85.7250°W)
Time: 19:42:47
(UTC+00:00)

BlueWalker 3 - Visible Passes

Search period start: 10 November 2025 00:00
Search period end: 20 November 2025 00:00
Orbit: 456 x 464 km, 53.2° (Epoch: 08 November)

Date Brightness Start Highest point End Pass type
(mag) Time Alt. Az. Time Alt. Az. Time Alt. Az.
10 Nov 2.0 10:37:52 45° NNW 10:38:44 63° NE 10:42:18 10° SE visible
11 Nov 3.4 10:05:26 34° E 10:05:26 34° E 10:07:50 10° ESE visible
11 Nov 3.8 11:39:33 10° W 11:41:35 14° SW 11:43:36 10° SSW visible
12 Nov 5.1 09:33:04 11° ESE 09:33:04 11° ESE 09:33:17 10° ESE visible
12 Nov 3.3 11:06:55 19° WSW 11:07:17 19° SW 11:09:55 10° S visible
13 Nov 3.7 10:34:36 19° SSW 10:34:36 19° SSW 10:36:00 10° S visible
16 Nov 3.5 00:33:18 10° SSW 00:35:04 26° SSW 00:35:04 26° SSW visible
16 Nov 2.4 23:59:03 10° SSW 00:02:25 37° SE 00:02:34 37° ESE visible
17 Nov 2.9 23:24:52 10° S 23:27:59 28° SE 23:29:59 17° E visible
18 Nov 4.5 01:02:22 10° W 01:03:48 19° W 01:03:48 19° W visible
19 Nov 3.1 00:27:37 10° WSW 00:30:57 34° NW 00:31:04 34° NW visible
19 Nov 2.6 23:52:55 10° WSW 23:56:24 44° NW 23:58:15 23° NNE visible
